Hourly Weather Ruszkow

Today, 18 April, Sunday

Time Temperature Precipitation Wind Pressure Humidity
00:00 +4°C° 0 mm 1 mps 740 mmHg 96%
01:00 +4°C° 0 mm 1 mps 740 mmHg 96%
02:00 +3°C° 0 mm 1 mps 740 mmHg 96%
03:00 +3°C° 0 mm 1 mps 740 mmHg 95%
04:00 +3°C° 0 mm 1 mps 740 mmHg 95%
05:00 +4°C° 0 mm 1 mps 740 mmHg 92%
06:00 +4°C° 0 mm 1 mps 740 mmHg 90%
07:00 +5°C° 0 mm 1 mps 740 mmHg 87%
08:00 +6°C° 0 mm 1 mps 740 mmHg 81%
09:00 +8°C° 0 mm 1 mps 740 mmHg 74%
10:00 +10°C° 0 mm 1 mps 740 mmHg 67%
11:00 +9°C° 0 mm 2 mps 740 mmHg 64%
12:00 +10°C° 0 mm 2 mps 740 mmHg 62%
13:00 +12°C° 0 mm 2 mps 740 mmHg 59%
14:00 +12°C° 0 mm 2 mps 740 mmHg 60%
15:00 +12°C° 0 mm 2 mps 740 mmHg 60%
16:00 +12°C° 0 mm 2 mps 739 mmHg 61%
17:00 +11°C° 0 mm 1 mps 739 mmHg 64%
18:00 +10°C° 0 mm 1 mps 740 mmHg 67%
19:00 +9°C° 0 mm 1 mps 740 mmHg 71%
20:00 +9°C° 0 mm 1 mps 740 mmHg 72%
21:00 +9°C° 0 mm 1 mps 740 mmHg 74%
22:00 +9°C° 0 mm 1 mps 740 mmHg 75%
23:00 +9°C° 0 mm 1 mps 739 mmHg 78%

Tomorrow, 19 April, Monday

Time Temperature Precipitation Wind Pressure Humidity
00:00 +8°C° 0 mm 2 mps 739 mmHg 80%
01:00 +8°C° 0 mm 2 mps 739 mmHg 82%
02:00 +8°C° 0.1 mm 2 mps 739 mmHg 86%
03:00 +7°C° 0.1 mm 2 mps 739 mmHg 90%
04:00 +7°C° 0.1 mm 2 mps 738 mmHg 93%
05:00 +7°C° 0.3 mm 2 mps 738 mmHg 93%
06:00 +8°C° 0.3 mm 3 mps 739 mmHg 92%
07:00 +8°C° 0.3 mm 3 mps 739 mmHg 91%
08:00 +9°C° 0 mm 3 mps 739 mmHg 82%
09:00 +10°C° 0 mm 4 mps 739 mmHg 74%
10:00 +10°C° 0 mm 5 mps 738 mmHg 65%
11:00 +10°C° 0 mm 5 mps 738 mmHg 65%
12:00 +10°C° 0 mm 5 mps 738 mmHg 65%
13:00 +10°C° 0 mm 5 mps 738 mmHg 65%
14:00 +10°C° 0 mm 5 mps 738 mmHg 65%
15:00 +10°C° 0 mm 5 mps 738 mmHg 65%
16:00 +9°C° 0 mm 5 mps 738 mmHg 65%
17:00 +10°C° 0 mm 4 mps 738 mmHg 68%
18:00 +8°C° 0 mm 4 mps 738 mmHg 72%
19:00 +8°C° 0 mm 3 mps 738 mmHg 75%
20:00 +8°C° 0 mm 3 mps 738 mmHg 78%
21:00 +7°C° 0 mm 3 mps 738 mmHg 82%
22:00 +7°C° 0 mm 2 mps 737 mmHg 85%
23:00 +6°C° 0 mm 2 mps 737 mmHg 86%

Day after tomorrow, 20 April, Tuesday

Time Temperature Precipitation Wind Pressure Humidity
00:00 +6°C° 0 mm 2 mps 737 mmHg 87%
01:00 +6°C° 0 mm 2 mps 737 mmHg 88%
02:00 +6°C° 0.2 mm 2 mps 737 mmHg 89%
03:00 +5°C° 0.2 mm 3 mps 737 mmHg 90%
04:00 +5°C° 0.2 mm 3 mps 737 mmHg 92%
05:00 +5°C° 0.1 mm 3 mps 737 mmHg 90%
06:00 +7°C° 0.1 mm 3 mps 737 mmHg 88%
07:00 +7°C° 0.1 mm 3 mps 737 mmHg 86%
08:00 +8°C° 0 mm 3 mps 737 mmHg 78%
09:00 +9°C° 0 mm 3 mps 737 mmHg 70%
10:00 +10°C° 0 mm 3 mps 737 mmHg 62%
11:00 +11°C° 0.1 mm 3 mps 736 mmHg 58%
12:00 +11°C° 0.1 mm 3 mps 736 mmHg 55%
13:00 +13°C° 0.1 mm 2 mps 736 mmHg 52%
14:00 +13°C° 0 mm 2 mps 736 mmHg 53%
15:00 +12°C° 0 mm 3 mps 736 mmHg 54%
16:00 +11°C° 0 mm 3 mps 736 mmHg 55%
17:00 +10°C° 0 mm 2 mps 736 mmHg 62%
18:00 +9°C° 0 mm 2 mps 736 mmHg 68%
19:00 +7°C° 0 mm 2 mps 736 mmHg 74%
20:00 +7°C° 0 mm 2 mps 736 mmHg 76%
21:00 +6°C° 0 mm 2 mps 736 mmHg 77%
22:00 +7°C° 0 mm 1 mps 736 mmHg 79%
23:00 +6°C° 0 mm 1 mps 736 mmHg 80%

21 April, Wednesday

Time Temperature Precipitation Wind Pressure Humidity
00:00 +5°C° 0 mm 2 mps 735 mmHg 81%
01:00 +4°C° 0 mm 2 mps 735 mmHg 82%
02:00 +4°C° 0 mm 2 mps 735 mmHg 82%
03:00 +4°C° 0 mm 2 mps 735 mmHg 83%
04:00 +4°C° 0 mm 2 mps 735 mmHg 83%
05:00 +5°C° 0 mm 2 mps 735 mmHg 78%
06:00 +7°C° 0 mm 2 mps 736 mmHg 74%
07:00 +8°C° 0 mm 2 mps 736 mmHg 69%
08:00 +9°C° 0.1 mm 2 mps 736 mmHg 64%
09:00 +11°C° 0.1 mm 3 mps 736 mmHg 59%
10:00 +12°C° 0.1 mm 3 mps 736 mmHg 53%
11:00 +12°C° 0.1 mm 3 mps 735 mmHg 53%
12:00 +12°C° 0.1 mm 3 mps 735 mmHg 53%
13:00 +13°C° 0.1 mm 4 mps 735 mmHg 53%
14:00 +13°C° 0.1 mm 4 mps 735 mmHg 53%
15:00 +13°C° 0.1 mm 3 mps 735 mmHg 53%
16:00 +13°C° 0.1 mm 3 mps 735 mmHg 53%
17:00 +13°C° 0 mm 2 mps 735 mmHg 59%
18:00 +10°C° 0 mm 2 mps 735 mmHg 65%
19:00 +10°C° 0 mm 1 mps 735 mmHg 72%
20:00 +8°C° 0 mm 2 mps 735 mmHg 74%
21:00 +8°C° 0 mm 2 mps 735 mmHg 76%
22:00 +7°C° 0 mm 2 mps 735 mmHg 78%
23:00 +7°C° 0 mm 2 mps 735 mmHg 80%

22 April, Thursday

Time Temperature Precipitation Wind Pressure Humidity
00:00 +7°C° 0 mm 2 mps 735 mmHg 83%
01:00 +7°C° 0 mm 2 mps 735 mmHg 85%
02:00 +7°C° 0 mm 2 mps 735 mmHg 88%
03:00 +5°C° 0 mm 3 mps 735 mmHg 91%
04:00 +5°C° 0 mm 3 mps 735 mmHg 93%
05:00 +5°C° 0 mm 3 mps 736 mmHg 89%
06:00 +7°C° 0 mm 3 mps 736 mmHg 86%
07:00 +8°C° 0 mm 3 mps 737 mmHg 82%
08:00 +9°C° 0.1 mm 3 mps 737 mmHg 78%
09:00 +9°C° 0.1 mm 3 mps 737 mmHg 74%
10:00 +10°C° 0.1 mm 3 mps 737 mmHg 70%
11:00 +10°C° 0.1 mm 3 mps 737 mmHg 70%
12:00 +10°C° 0.1 mm 4 mps 737 mmHg 71%
13:00 +8°C° 0.1 mm 4 mps 737 mmHg 72%
14:00 +7°C° 0.3 mm 4 mps 738 mmHg 75%
15:00 +6°C° 0.3 mm 4 mps 738 mmHg 79%
16:00 +5°C° 0.3 mm 4 mps 738 mmHg 82%
17:00 +4°C° 0 mm 3 mps 738 mmHg 83%
18:00 +4°C° 0 mm 3 mps 738 mmHg 84%
19:00 +4°C° 0 mm 2 mps 739 mmHg 85%
20:00 +4°C° 0 mm 2 mps 739 mmHg 85%
21:00 +3°C° 0 mm 2 mps 739 mmHg 86%
22:00 +2°C° 0 mm 3 mps 739 mmHg 86%
23:00 +1°C° 0 mm 3 mps 739 mmHg 88%

23 April, Friday

Time Temperature Precipitation Wind Pressure Humidity
00:00 +1°C° 0 mm 3 mps 739 mmHg 89%
01:00 +1°C° 0 mm 3 mps 739 mmHg 90%
02:00 0°C° 0 mm 4 mps 739 mmHg 89%
03:00 0°C° 0 mm 4 mps 740 mmHg 88%
04:00 0°C° 0 mm 4 mps 740 mmHg 86%
05:00 0°C° 0.1 mm 4 mps 740 mmHg 86%
06:00 +1°C° 0.1 mm 4 mps 740 mmHg 87%
07:00 +1°C° 0.1 mm 4 mps 741 mmHg 87%
08:00 +1°C° 0.2 mm 4 mps 741 mmHg 89%
09:00 +2°C° 0.2 mm 3 mps 741 mmHg 92%
10:00 +2°C° 0.2 mm 3 mps 742 mmHg 94%
11:00 +3°C° 0.2 mm 3 mps 742 mmHg 88%
12:00 +4°C° 0.2 mm 4 mps 742 mmHg 82%
13:00 +5°C° 0.2 mm 5 mps 743 mmHg 76%
14:00 +5°C° 0.3 mm 5 mps 743 mmHg 74%
15:00 +6°C° 0.3 mm 5 mps 743 mmHg 72%
16:00 +6°C° 0.3 mm 5 mps 743 mmHg 69%
17:00 +5°C° 0.2 mm 4 mps 743 mmHg 74%
18:00 +4°C° 0.2 mm 4 mps 744 mmHg 78%
19:00 +2°C° 0.2 mm 3 mps 744 mmHg 83%
20:00 +2°C° 0 mm 3 mps 744 mmHg 84%
21:00 0°C° 0 mm 4 mps 745 mmHg 85%
22:00 0°C° 0 mm 4 mps 745 mmHg 86%
23:00 0°C° 0 mm 4 mps 745 mmHg 87%
Show more